[[{"header":{"parameterUnit":"m.s-1","parameterCategory":1,"la1":30.2992,"la2":30.254,"lo1":-89.0895,"lo2":-89.0443,"dy":0.0025,"dx":0.0025,"nx":19,"ny":19,"refTime":"2026-03-27T03:00:00:Z","depth":0,"parameterNumber":2,"parameterNumberName":"U-component_of_WINDS"},"data":[0,0,0,2.3448,2.3451,2.3622,2.3622,2.3854,2.3856,0,0,0,0,0,0,0,0,0,0,0,2.3401,2.3403,2.3447,2.3452,2.3622,2.3622,2.3853,2.3856,0,0,0,0,0,0,0,0,0,0,0,2.34,2.3402,2.3404,2.3452,2.3622,2.3623,2.3853,2.372,0,0,0,0,0,0,0,0,0,0,2.3553,2.3513,2.3402,2.3405,2.3453,2.3621,2.3623,2.3714,2.3729,2.3781,0,2.3825,0,2.3844,2.3872,2.3873,0,0,0,2.345,2.35,2.3543,2.3405,2.3455,2.3621,2.3544,2.3722,2.3739,2.3801,2.3828,2.3836,2.3848,2.3873,2.3874,2.4178,2.4179,0,0,2.344,2.3434,2.3531,2.3554,2.3524,2.3539,2.355,2.3732,2.3763,2.3829,2.3842,2.3852,2.3875,2.3877,2.4176,2.4178,0,0,0,2.3415,2.3428,2.3466,2.3544,2.3574,2.3544,2.3556,2.3755,2.3767,2.3844,2.3854,2.3876,2.3879,2.4174,2.4177,2.4247,0,0,0,2.3409,2.3413,2.3462,2.346,2.3571,2.3665,2.3575,2.3755,2.3775,2.3853,2.3876,2.3881,2.4173,2.4176,2.4241,2.4281,0,0,0,2.3389,2.3411,2.3436,2.3459,2.3532,2.3663,2.3686,2.3759,2.3782,2.3873,2.3882,2.4172,2.4175,2.4236,2.4273,2.4361,0,0,0,2.3366,2.3495,2.3437,2.3586,2.353,2.3703,2.3684,2.3814,2.39,2.3877,2.4173,2.4177,2.4234,2.4268,2.4356,2.4435,2.4467,0,0,2.3525,2.3513,2.3602,2.3555,2.3737,2.3678,2.3872,2.3956,2.3972,2.4109,2.4117,2.4243,2.4272,2.436,2.4646,2.4671,0,0,0,2.365,2.3714,2.3763,2.3844,2.3911,2.3975,2.403,2.4063,2.418,2.404,2.4298,2.4316,2.4368,2.4406,2.4428,2.4474,2.4193,2.4193,2.4193,2.3866,2.3879,2.4027,2.4061,2.4141,2.4199,2.4267,2.4322,2.431,2.4371,2.4412,2.4584,2.4629,2.4645,2.4693,2.4454,2.4454,2.4455,2.4455,2.4102,2.4196,2.418,2.4318,2.4333,2.445,2.4514,2.4503,2.4618,2.4553,2.4599,2.4528,2.4672,2.4715,2.446,2.4459,2.4459,2.4458,2.4458,2.4247,2.4294,2.4331,2.4453,2.4547,2.4579,2.469,2.4699,2.4709,2.4755,2.4802,2.4801,2.4803,2.4777,2.4777,2.4778,2.4778,2.4779,2.4779,2.4382,2.4422,2.4513,2.4599,2.4655,2.4731,2.4795,2.4851,2.4917,2.4916,2.4916,2.4902,2.4682,2.4628,2.4788,2.4787,2.4786,2.4785,2.4784,2.4619,2.4568,2.4708,2.4765,2.487,2.4966,2.4976,2.5093,2.5141,2.5198,2.5175,2.501,2.4999,2.4982,2.4938,2.5168,2.5168,2.5169,2.5169,2.4742,2.4737,2.4886,2.4977,2.5067,2.5092,2.5258,2.5311,2.5359,2.5392,2.536,2.5301,2.5283,2.5283,2.526,2.5219,2.5516,2.5516,2.5516,2.489,2.4895,2.5031,2.5075,2.516,2.5234,2.5391,2.55,2.5544,2.5531,2.5418,2.5404,2.5309,2.5277,2.5261,2.5224,2.5148,0,0]},{"header":{"parameterUnit":"m.s-1","parameterCategory":1,"la1":30.2992,"la2":30.254,"lo1":-89.0895,"lo2":-89.0443,"dy":0.0025,"dx":0.0025,"nx":19,"ny":19,"refTime":"2026-03-27T03:00:00:Z","depth":0,"parameterNumber":3,"parameterNumberName":"V-component_of_WINDS"},"data":[0,0,0,-0.7839,-0.783,-0.7366,-0.7364,-0.6793,-0.6788,0,0,0,0,0,0,0,0,0,0,0,-0.7999,-0.7996,-0.7839,-0.7829,-0.7367,-0.7364,-0.6794,-0.6788,0,0,0,0,0,0,0,0,0,0,0,-0.8,-0.7997,-0.7993,-0.7827,-0.7367,-0.7364,-0.6795,-0.7134,0,0,0,0,0,0,0,0,0,0,-0.7579,-0.7752,-0.7998,-0.7993,-0.7824,-0.7367,-0.7364,-0.715,-0.7113,-0.7015,0,-0.6944,0,-0.6858,-0.6752,-0.675,0,0,0,-0.7808,-0.7783,-0.7639,-0.7993,-0.7821,-0.7368,-0.7569,-0.7129,-0.7087,-0.6966,-0.6935,-0.6913,-0.6849,-0.6749,-0.6746,-0.6273,-0.6272,0,0,-0.7834,-0.7925,-0.7668,-0.7613,-0.7698,-0.7584,-0.7555,-0.7103,-0.7071,-0.6933,-0.6899,-0.6839,-0.6745,-0.6741,-0.6274,-0.6273,0,0,0,-0.7921,-0.7944,-0.781,-0.7638,-0.7554,-0.7571,-0.7538,-0.7091,-0.704,-0.6892,-0.6832,-0.6742,-0.6735,-0.6275,-0.6274,-0.6303,0,0,0,-0.7935,-0.7995,-0.7822,-0.7873,-0.7563,-0.7319,-0.7537,-0.7072,-0.7018,-0.6835,-0.6742,-0.673,-0.6277,-0.6274,-0.6305,-0.6299,0,0,0,-0.802,-0.8004,-0.7947,-0.7879,-0.7685,-0.7324,-0.7246,-0.7058,-0.6982,-0.675,-0.6729,-0.6278,-0.6275,-0.6307,-0.6301,-0.62,0,0,0,-0.8135,-0.7975,-0.7949,-0.7745,-0.769,-0.7351,-0.7248,-0.6988,-0.6793,-0.6739,-0.6276,-0.6274,-0.6307,-0.6303,-0.6203,-0.6129,-0.6109,0,0,-0.7983,-0.796,-0.7833,-0.7796,-0.7487,-0.7414,-0.7102,-0.6832,-0.672,-0.6426,-0.6413,-0.6304,-0.6302,-0.62,-0.597,-0.5955,0,0,0,-0.7815,-0.7725,-0.7623,-0.7447,-0.7244,-0.7065,-0.6835,-0.6734,-0.6481,-0.6592,-0.6239,-0.6234,-0.6171,-0.6131,-0.6118,-0.6055,-0.6261,-0.6261,-0.6261,-0.7727,-0.7602,-0.7382,-0.7201,-0.7031,-0.6797,-0.6643,-0.6466,-0.6383,-0.6302,-0.6212,-0.6089,-0.6046,-0.6036,-0.5972,-0.6166,-0.6167,-0.6167,-0.6167,-0.7489,-0.734,-0.7241,-0.6993,-0.6858,-0.6642,-0.6409,-0.6358,-0.6132,-0.6146,-0.6083,-0.6106,-0.6023,-0.596,-0.6167,-0.6167,-0.6167,-0.6167,-0.6167,-0.7414,-0.7321,-0.7208,-0.6942,-0.6747,-0.6566,-0.6356,-0.6239,-0.6125,-0.6064,-0.5954,-0.5953,-0.5933,-0.6022,-0.6021,-0.6021,-0.602,-0.602,-0.602,-0.7379,-0.7252,-0.7095,-0.6868,-0.674,-0.6554,-0.6318,-0.6184,-0.6004,-0.5934,-0.5932,-0.5855,-0.6043,-0.609,-0.6012,-0.6013,-0.6014,-0.6015,-0.6016,-0.7177,-0.7206,-0.6964,-0.6836,-0.6558,-0.6371,-0.6227,-0.5965,-0.5836,-0.5735,-0.5671,-0.5832,-0.5795,-0.5804,-0.5842,-0.5704,-0.5704,-0.5704,-0.5704,-0.7111,-0.7085,-0.6811,-0.6614,-0.6406,-0.6253,-0.5972,-0.5786,-0.5595,-0.5506,-0.5509,-0.5551,-0.5567,-0.552,-0.5535,-0.5568,-0.5364,-0.5364,-0.5363,-0.6977,-0.6926,-0.6716,-0.6541,-0.6315,-0.612,-0.5852,-0.562,-0.5409,-0.5347,-0.5432,-0.5446,-0.5512,-0.5542,-0.5478,-0.5505,-0.5563,0,0]}]]